NOAA 16 DEB, 41087

Orbit data source: Space-Track

NOAA 16 DEB, 41087 is space debris in SSO originally from a launch on Thu, 21 Sep 2000 UTC launched from the Air Force Western Test Range (AFWTR). Debris objects in space refer to the collection of defunct objects orbiting the Earth. Examples of debris include non-operational satellites, rocket bodies, and fragments generated from explosions, collisions, or faulty payload assembly.

Loading next visibility...
Identifier
41087, 2000-055AW
Orbit
SSO
Country
Flag of USUS
Related business
Manufacturer
Unknown
Mission
Spacecraft
Bus & Motor
Unknown
Mass
Unknown
Launch date (UTC)
2000-09-21 (25 years ago)
Launch vehicle
Unknown
Launch site
Air Force Western Test Range (AFWTR)
Object type
Payload
Rocket body
Debris
Shape & HBR
Unknown shape, 0.1 m
Radar Cross Section
Small (<0.1 m²)

Expand to show TLE details & history
Last TLE update: 10 hours ago

TLE from 10 hours ago
0 NOAA 16 DEB
1 41087U 00055AW  25291.31678448  .00001402  00000-0  77165-3 0  9996
2 41087  98.5659 309.6614 0014829 134.9960 225.2418 14.13099951508569
Epoch: 2025-10-18T07:36Z
TLE epoch observation values (Epoch: 2025-10-18T07:36:10.179Z)
Latitude
0.00006°
Longitude
168.56944°
Altitude
859.248 km
Speed
7.419 km/s
True Right ascension
20h 38m 38s
True Declination
0° 00' 00"
Sunlit
Object was in daylight at epoch
Visualization orbit readout
Latitude
Unknown
Longitude
Unknown
Altitude
Unknown
Speed
Unknown
Apparent Right ascension
Unknown
Apparent Declination
Unknown
Sunlit
N/A
Visualization observer readout
Local Sidereal Time
12:28:35
Azimuth
Unknown
Elevation
Unknown
Doppler factor
Unknown
Orbital elements
Apogee altitude
856.657 km
Perigee altitude
835.232 km
Semi-major axis
7,224.081 km
Eccentricity
0.00148
Inclination
98.5659°
RAAN
309.6614°
Arg. of periapsis
134.996°
True anomaly
225.12129°
Mean anomaly
225.2418°
Eccentric anomaly
225.18153°
Mean motion
3.53484 °/min
Orbital period
101.84 mins
BSTAR
0.00077165
Loading maneuver chart data...
Computing Atmospheric mass density...

Documentation

Showing up to 5 results
|